STARLINK-2524, 48304

Orbit data source: Space-Track

STARLINK-2524, 48304 is a payload satellite owned by SpaceX/Seattle (US) in LEO that was launched on Thu, 29 Apr 2021 UTC via an FALCON 9 launch vehicle from the Air Force Eastern Test Range (AFETR). Payload-class satellites include a variety of spacecraft equipped with specific instruments for various scientific and technological missions. These include communications satellites like Starlink; space stations such as the ISS; scientific satellites like the Hubble; Earth observation satellites from companies like Planet Labs, Umbra, and HawkEye 360; GPS; miniature CubeSats for education and research; and military/defense satellites.

Loading next visibility...
Identifier
48304, 2021-036AE
Orbit
LEO
Country
Flag of USUS
Related business
Manufacturer
SpaceX/Seattle
Mission
Operational Commercial Communications
Bus & Motor
STARLINK, Unknown motor
Mass
260 kg wet, ~248 kg dry
Launch date (UTC)
2021-04-29 (5 years ago)
Launch vehicle
FALCON 9
Launch site
Air Force Eastern Test Range (AFETR)
Object type
Payload
Rocket body
Debris
Shape & HBR
Box + 1 Pan, 10.1 m
Radar Cross Section
13.562 m², Large (>1 m²)

Expand to show TLE details & history
Last TLE update: 15 hours ago

TLE from 15 hours ago
0 STARLINK-2524
1 48304U 21036AE  26035.87382288 -.00002941  00000-0 -17862-3 0  9998
2 48304  53.0551 238.9310 0001531  81.4116 278.7047 15.06396753263222
Epoch: 2026-02-04T20:58Z
TLE epoch observation values (Epoch: 2026-02-04T20:58:18.296Z)
Latitude
0.00001°
Longitude
149.32062°
Altitude
547.94 km
Speed
7.589 km/s
True Right ascension
15h 55m 43s
True Declination
0° 00' 00"
Sunlit
Object was in daylight at epoch
Visualization orbit readout
Latitude
Unknown
Longitude
Unknown
Altitude
Unknown
Speed
Unknown
Apparent Right ascension
Unknown
Apparent Declination
Unknown
Sunlit
N/A
Visualization observer readout
Local Sidereal Time
13:35:01
Azimuth
Unknown
Elevation
Unknown
Doppler factor
Unknown
Orbital elements
Apogee altitude
548.552 km
Perigee altitude
546.432 km
Semi-major axis
6,925.629 km
Eccentricity
0.00015
Inclination
53.0551°
RAAN
238.931°
Arg. of periapsis
81.4116°
True anomaly
278.68736°
Mean anomaly
278.7047°
Eccentric anomaly
278.69603°
Mean motion
3.76577 °/min
Orbital period
95.6 mins
BSTAR
-0.00017862
Loading maneuver chart data...
Computing Atmospheric mass density...
Loading historical data...
Loading historical data...
Loading historical data...
Loading historical data...
Loading historical data...
Loading historical data...
Loading historical data...

Documentation

Showing up to 5 results
|